| time (UTC) | temp F | wind direction | speed MPH | gust MPH | rain 1hr in | rain 24hr in | rain mn in | humidity % | barometer mb |
| 20260905193532 | 73 | 319 | 4.0 | 9.0 | 0.00 | 0.00 | 0.00 | 71 | 1013.7 |
| 20260905193059 | 73 | 315 | 4.0 | 12.0 | 0.00 | 0.00 | 0.00 | 72 | 1013.7 |
| 20260905192525 | 73 | 5 | 6.0 | 12.0 | 0.00 | 0.00 | 0.00 | 71 | 1013.7 |
| 20260905192025 | 73 | 323 | 7.0 | 12.0 | 0.00 | 0.00 | 0.00 | 73 | 1013.8 |
| 20260905191551 | 73 | 336 | 7.0 | 13.0 | 0.00 | 0.00 | 0.00 | 73 | 1013.9 |
| 20260905191034 | 73 | 360 | 7.0 | 13.0 | 0.00 | 0.00 | 0.00 | 72 | 1013.8 |
| 20260905190557 | 73 | 325 | 5.0 | 9.0 | 0.00 | 0.00 | 0.00 | 72 | 1013.8 |
| 20260905190031 | 73 | 271 | 4.0 | 12.0 | 0.00 | 0.00 | 0.00 | 71 | 1013.7 |
| 20260905185538 | 73 | 290 | 7.0 | 12.0 | 0.00 | 0.00 | 0.00 | 71 | 1013.7 |
| 20260905185112 | 73 | 317 | 3.0 | 8.0 | 0.00 | 0.00 | 0.00 | 70 | 1013.7 |
| 20260905184526 | 73 | 339 | 4.0 | 8.0 | 0.00 | 0.00 | 0.00 | 70 | 1013.7 |
| 20260905184024 | 73 | 288 | 5.0 | 9.0 | 0.00 | 0.00 | 0.00 | 70 | 1013.7 |
| 20260905183532 | 73 | 25 | 4.0 | 12.0 | 0.00 | 0.00 | 0.00 | 71 | 1013.6 |
| 20260905183028 | 73 | 340 | 8.0 | 12.0 | 0.00 | 0.00 | 0.00 | 70 | 1013.6 |
| 20260905182526 | 73 | 278 | 4.0 | 12.0 | 0.00 | 0.00 | 0.00 | 70 | 1013.7 |
| 20260905182034 | 73 | 355 | 6.0 | 10.0 | 0.00 | 0.00 | 0.00 | 72 | 1013.7 |
| 20260905181614 | 73 | 355 | 6.0 | 11.0 | 0.00 | 0.00 | 0.00 | 70 | 1013.7 |
| 20260905181033 | 73 | 344 | 5.0 | 9.0 | 0.00 | 0.00 | 0.00 | 71 | 1013.6 |
| 20260905180546 | 73 | 273 | 4.0 | 7.0 | 0.00 | 0.00 | 0.00 | 69 | 1013.5 |
| 20260905180023 | 73 | 347 | 5.0 | 9.0 | 0.00 | 0.00 | 0.00 | 71 | 1013.6 |
| 20260905175541 | 73 | 346 | 6.0 | 9.0 | 0.00 | 0.00 | 0.00 | 73 | 1013.6 |
| 20260905175023 | 72 | 337 | 4.0 | 9.0 | 0.00 | 0.00 | 0.00 | 72 | 1013.6 |
| 20260905174551 | 72 | 270 | 4.0 | 9.0 | 0.00 | 0.00 | 0.00 | 73 | 1013.6 |
| 20260905174103 | 72 | 348 | 7.0 | 10.0 | 0.00 | 0.00 | 0.00 | 70 | 1013.7 |
| 20260905173529 | 73 | 34 | 6.0 | 10.0 | 0.00 | 0.00 | 0.00 | 72 | 1013.7 |
| 20260905173022 | 73 | 38 | 6.0 | 10.0 | 0.00 | 0.00 | 0.00 | 72 | 1013.7 |
| 20260905172537 | 72 | 271 | 2.0 | 8.0 | 0.00 | 0.00 | 0.00 | 73 | 1013.6 |
| 20260905172049 | 72 | 355 | 4.0 | 8.0 | 0.00 | 0.00 | 0.00 | 73 | 1013.8 |
| 20260905171530 | 72 | 287 | 2.0 | 8.0 | 0.00 | 0.00 | 0.00 | 75 | 1013.6 |
| 20260905171026 | 72 | 275 | 3.0 | 9.0 | 0.00 | 0.00 | 0.00 | 73 | 1013.6 |
| 20260905170537 | 73 | 302 | 4.0 | 10.0 | 0.00 | 0.00 | 0.00 | 72 | 1013.6 |
| 20260905170029 | 73 | 349 | 4.0 | 8.0 | 0.00 | 0.00 | 0.00 | 73 | 1013.7 |
| 20260905165533 | 73 | 5 | 4.0 | 9.0 | 0.00 | 0.00 | 0.00 | 73 | 1013.7 |
| 20260905165101 | 73 | 347 | 5.0 | 9.0 | 0.00 | 0.00 | 0.00 | 72 | 1013.7 |
| 20260905164542 | 72 | 317 | 3.0 | 10.0 | 0.00 | 0.00 | 0.00 | 74 | 1013.7 |
| 20260905164044 | 73 | 335 | 5.0 | 10.0 | 0.00 | 0.00 | 0.00 | 73 | 1013.7 |
| 20260905163552 | 73 | 271 | 3.0 | 10.0 | 0.00 | 0.00 | 0.00 | 74 | 1013.8 |
| 20260905163028 | 73 | 281 | 2.0 | 11.0 | 0.00 | 0.00 | 0.00 | 76 | 1013.8 |
| 20260905162519 | 73 | 355 | 6.0 | 13.0 | 0.00 | 0.00 | 0.00 | 72 | 1013.8 |
| 20260905162028 | 73 | 332 | 2.0 | 13.0 | 0.00 | 0.00 | 0.00 | 72 | 1013.8 |
| 20260905161526 | 73 | 293 | 4.0 | 7.0 | 0.00 | 0.00 | 0.00 | 73 | 1013.8 |
| 20260905161029 | 73 | 273 | 3.0 | 6.0 | 0.00 | 0.00 | 0.00 | 72 | 1013.8 |
| 20260905160548 | 73 | 286 | 3.0 | 12.0 | 0.00 | 0.00 | 0.00 | 73 | 1013.9 |
| 20260905160026 | 73 | 314 | 4.0 | 12.0 | 0.00 | 0.00 | 0.00 | 74 | 1013.9 |
| 20260905155551 | 72 | 331 | 4.0 | 10.0 | 0.00 | 0.00 | 0.00 | 76 | 1013.9 |
| 20260905155029 | 72 | 331 | 5.0 | 10.0 | 0.00 | 0.00 | 0.00 | 72 | 1014.0 |
| 20260905154531 | 72 | 307 | 5.0 | 8.0 | 0.00 | 0.00 | 0.00 | 74 | 1014.0 |
| 20260905154037 | 72 | 338 | 5.0 | 8.0 | 0.00 | 0.00 | 0.00 | 75 | 1014.0 |
| 20260905153547 | 72 | 280 | 3.0 | 7.0 | 0.00 | 0.00 | 0.00 | 74 | 1014.0 |
| 20260905153116 | 72 | 288 | 3.0 | 9.0 | 0.00 | 0.00 | 0.00 | 74 | 1014.0 |
| 20260905152536 | 72 | 295 | 4.0 | 10.0 | 0.00 | 0.00 | 0.00 | 73 | 1013.9 |
| 20260905152101 | 72 | 338 | 4.0 | 7.0 | 0.00 | 0.00 | 0.00 | 74 | 1013.9 |
| 20260905151545 | 71 | 319 | 3.0 | 8.0 | 0.00 | 0.00 | 0.00 | 73 | 1013.9 |
| 20260905151103 | 71 | 336 | 4.0 | 10.0 | 0.00 | 0.00 | 0.00 | 74 | 1013.9 |
| 20260905150547 | 71 | 279 | 4.0 | 10.0 | 0.00 | 0.00 | 0.00 | 73 | 1013.9 |
| 20260905150024 | 71 | 331 | 4.0 | 10.0 | 0.00 | 0.00 | 0.00 | 73 | 1014.0 |
| 20260905145541 | 71 | 306 | 5.0 | 10.0 | 0.00 | 0.00 | 0.00 | 74 | 1014.0 |
| 20260905145021 | 71 | 317 | 2.0 | 7.0 | 0.00 | 0.00 | 0.00 | 76 | 1013.9 |
| 20260905144533 | 71 | 272 | 3.0 | 7.0 | 0.00 | 0.00 | 0.00 | 77 | 1013.9 |
| 20260905144112 | 71 | 323 | 2.0 | 8.0 | 0.00 | 0.00 | 0.00 | 78 | 1013.9 |
| 20260905143546 | 71 | 360 | 4.0 | 8.0 | 0.00 | 0.00 | 0.00 | 78 | 1013.9 |
| 20260905143025 | 71 | 331 | 3.0 | 8.0 | 0.00 | 0.00 | 0.00 | 76 | 1013.9 |
| 20260905142545 | 71 | 339 | 3.0 | 13.0 | 0.00 | 0.00 | 0.00 | 77 | 1013.9 |
| 20260905142041 | 71 | 346 | 7.0 | 13.0 | 0.00 | 0.00 | 0.00 | 76 | 1013.9 |
| 20260905141524 | 71 | 286 | 2.0 | 8.0 | 0.00 | 0.00 | 0.00 | 77 | 1013.9 |
| 20260905141045 | 71 | 344 | 5.0 | 8.0 | 0.00 | 0.00 | 0.00 | 77 | 1014.0 |
| 20260905140603 | 70 | 319 | 2.0 | 6.0 | 0.00 | 0.00 | 0.00 | 78 | 1013.9 |
| 20260905140029 | 71 | 325 | 2.0 | 8.0 | 0.00 | 0.00 | 0.00 | 76 | 1013.9 |
| 20260905135527 | 71 | 271 | 2.0 | 9.0 | 0.00 | 0.00 | 0.00 | 76 | 1013.9 |
| 20260905135041 | 71 | 333 | 6.0 | 9.0 | 0.00 | 0.00 | 0.00 | 79 | 1013.9 |
| 20260905134608 | 71 | 344 | 4.0 | 9.0 | 0.00 | 0.00 | 0.00 | 79 | 1013.9 |
| 20260905134032 | 71 | 341 | 5.0 | 9.0 | 0.00 | 0.00 | 0.00 | 80 | 1013.8 |
| 20260905133529 | 71 | 338 | 4.0 | 7.0 | 0.00 | 0.00 | 0.00 | 82 | 1013.8 |
| 20260905133034 | 70 | 325 | 2.0 | 7.0 | 0.00 | 0.00 | 0.00 | 82 | 1013.7 |
| 20260905132526 | 70 | 336 | 0.0 | 6.0 | 0.00 | 0.00 | 0.00 | 84 | 1013.7 |
| 20260905132034 | 70 | 291 | 3.0 | 7.0 | 0.00 | 0.00 | 0.00 | 84 | 1013.8 |
| 20260905131539 | 70 | 16 | 2.0 | 7.0 | 0.00 | 0.00 | 0.00 | 87 | 1013.8 |
| 20260905131033 | 69 | 319 | 3.0 | 6.0 | 0.00 | 0.00 | 0.00 | 87 | 1013.9 |
| 20260905130531 | 69 | 275 | 1.0 | 5.0 | 0.00 | 0.00 | 0.00 | 89 | 1013.9 |
| 20260905130041 | 68 | 281 | 1.0 | 4.0 | 0.00 | 0.00 | 0.00 | 90 | 1013.9 |
| 20260905125531 | 68 | 289 | 1.0 | 3.0 | 0.00 | 0.00 | 0.00 | 91 | 1014.0 |
| 20260905125039 | 67 | 313 | 1.0 | 4.0 | 0.00 | 0.00 | 0.00 | 92 | 1014.1 |
| 20260905124601 | 67 | 271 | 1.0 | 4.0 | 0.00 | 0.00 | 0.00 | 93 | 1014.1 |
| 20260905124038 | 66 | 292 | 0.0 | 0.0 | 0.00 | 0.00 | 0.00 | 94 | 1014.1 |
| 20260905123525 | 66 | 292 | 0.0 | 0.0 | 0.00 | 0.00 | 0.00 | 94 | 1014.1 |
| 20260905123047 | 65 | 302 | 0.0 | 0.0 | 0.00 | 0.00 | 0.00 | 95 | 1014.0 |
| 20260905122532 | 65 | 309 | 0.0 | 0.0 | 0.00 | 0.00 | 0.00 | 95 | 1014.1 |
| 20260905122039 | 65 | 309 | 0.0 | 0.0 | 0.00 | 0.00 | 0.00 | 95 | 1014.0 |
| 20260905121545 | 64 | 309 | 0.0 | 0.0 | 0.00 | 0.00 | 0.00 | 95 | 1014.0 |
| 20260905121042 | 64 | 309 | 0.0 | 0.0 | 0.00 | 0.00 | 0.00 | 95 | 1014.0 |
| 20260905120543 | 63 | 309 | 0.0 | 0.0 | 0.00 | 0.00 | 0.00 | 95 | 1013.9 |
| 20260905120026 | 63 | 309 | 0.0 | 0.0 | 0.00 | 0.00 | 0.00 | 95 | 1013.8 |
| 20260905115553 | 62 | 309 | 0.0 | 0.0 | 0.00 | 0.00 | 0.00 | 95 | 1013.8 |
| 20260905115027 | 62 | 309 | 0.0 | 0.0 | 0.00 | 0.00 | 0.00 | 95 | 1013.7 |
| 20260905114556 | 61 | 309 | 0.0 | 0.0 | 0.00 | 0.00 | 0.00 | 94 | 1013.5 |
| 20260905114026 | 61 | 309 | 0.0 | 0.0 | 0.00 | 0.00 | 0.00 | 94 | 1013.4 |
| 20260905113531 | 60 | 309 | 0.0 | 0.0 | 0.00 | 0.00 | 0.00 | 94 | 1013.4 |
| 20260905113031 | 60 | 309 | 0.0 | 0.0 | 0.00 | 0.00 | 0.00 | 93 | 1013.5 |
| 20260905112525 | 60 | 309 | 0.0 | 0.0 | 0.00 | 0.00 | 0.00 | 93 | 1013.5 |
| 20260905112047 | 60 | 309 | 0.0 | 0.0 | 0.00 | 0.00 | 0.00 | 93 | 1013.5 |
| 20260905111529 | 60 | 309 | 0.0 | 0.0 | 0.00 | 0.00 | 0.00 | 93 | 1013.5 |
| 20260905111047 | 60 | 309 | 0.0 | 0.0 | 0.00 | 0.00 | 0.00 | 93 | 1013.5 |
| 20260905110534 | 60 | 309 | 0.0 | 0.0 | 0.00 | 0.00 | 0.00 | 93 | 1013.7 |
| 20260905110054 | 60 | 309 | 0.0 | 0.0 | 0.00 | 0.00 | 0.00 | 93 | 1013.7 |
| 20260905105529 | 60 | 309 | 0.0 | 0.0 | 0.00 | 0.00 | 0.00 | 93 | 1013.6 |
| 20260905105025 | 60 | 309 | 0.0 | 0.0 | 0.00 | 0.00 | 0.00 | 93 | 1013.5 |
| 20260905104552 | 60 | 309 | 0.0 | 0.0 | 0.00 | 0.00 | 0.00 | 92 | 1013.3 |
| 20260905104056 | 60 | 309 | 0.0 | 0.0 | 0.00 | 0.00 | 0.00 | 92 | 1013.2 |
| 20260905103526 | 60 | 309 | 0.0 | 0.0 | 0.00 | 0.00 | 0.00 | 92 | 1013.2 |
| 20260905103043 | 60 | 309 | 0.0 | 0.0 | 0.00 | 0.00 | 0.00 | 92 | 1013.1 |
| 20260905102542 | 60 | 309 | 0.0 | 0.0 | 0.00 | 0.00 | 0.00 | 92 | 1012.9 |
| 20260905102028 | 60 | 309 | 0.0 | 0.0 | 0.00 | 0.00 | 0.00 | 92 | 1012.8 |
| 20260905101540 | 60 | 309 | 0.0 | 0.0 | 0.00 | 0.00 | 0.00 | 92 | 1012.8 |
| 20260905101031 | 60 | 309 | 0.0 | 0.0 | 0.00 | 0.00 | 0.00 | 92 | 1012.8 |
| 20260905100537 | 60 | 309 | 0.0 | 0.0 | 0.00 | 0.00 | 0.00 | 92 | 1012.9 |
| 20260905100052 | 60 | 309 | 0.0 | 0.0 | 0.00 | 0.00 | 0.00 | 92 | 1012.8 |
| 20260905095525 | 61 | 309 | 0.0 | 0.0 | 0.00 | 0.00 | 0.00 | 91 | 1012.8 |
| 20260905095045 | 61 | 309 | 0.0 | 0.0 | 0.00 | 0.00 | 0.00 | 91 | 1012.8 |
| 20260905094537 | 61 | 309 | 0.0 | 0.0 | 0.00 | 0.00 | 0.00 | 91 | 1012.8 |
| 20260905094040 | 61 | 309 | 0.0 | 0.0 | 0.00 | 0.00 | 0.00 | 91 | 1012.7 |
| 20260905093539 | 61 | 309 | 0.0 | 0.0 | 0.00 | 0.00 | 0.00 | 91 | 1012.8 |
| 20260905093032 | 61 | 309 | 0.0 | 0.0 | 0.00 | 0.00 | 0.00 | 91 | 1012.7 |
| 20260905092527 | 61 | 309 | 0.0 | 0.0 | 0.00 | 0.00 | 0.00 | 91 | 1012.7 |
| 20260905092054 | 61 | 309 | 0.0 | 0.0 | 0.00 | 0.00 | 0.00 | 91 | 1012.7 |
| 20260905091543 | 62 | 309 | 0.0 | 0.0 | 0.00 | 0.00 | 0.00 | 91 | 1012.6 |
| 20260905091036 | 62 | 309 | 0.0 | 0.0 | 0.00 | 0.00 | 0.00 | 91 | 1012.6 |
| 20260905090539 | 62 | 309 | 0.0 | 0.0 | 0.00 | 0.00 | 0.00 | 91 | 1012.6 |
| 20260905090040 | 62 | 309 | 0.0 | 0.0 | 0.00 | 0.00 | 0.00 | 91 | 1012.6 |
| 20260905085552 | 62 | 309 | 0.0 | 0.0 | 0.00 | 0.00 | 0.00 | 91 | 1012.5 |
| 20260905085023 | 62 | 309 | 0.0 | 0.0 | 0.00 | 0.00 | 0.00 | 91 | 1012.5 |
| 20260905084530 | 62 | 309 | 0.0 | 0.0 | 0.00 | 0.00 | 0.00 | 91 | 1012.5 |
| 20260905084045 | 62 | 309 | 0.0 | 0.0 | 0.00 | 0.00 | 0.00 | 91 | 1012.6 |
| 20260905083547 | 62 | 309 | 0.0 | 0.0 | 0.00 | 0.00 | 0.00 | 91 | 1012.6 |
| 20260905083039 | 63 | 309 | 0.0 | 0.0 | 0.00 | 0.00 | 0.00 | 91 | 1012.6 |
| 20260905082541 | 63 | 309 | 0.0 | 0.0 | 0.00 | 0.00 | 0.00 | 91 | 1012.6 |
| 20260905082047 | 63 | 309 | 0.0 | 0.0 | 0.00 | 0.00 | 0.00 | 91 | 1012.7 |
| 20260905081550 | 63 | 309 | 0.0 | 0.0 | 0.00 | 0.00 | 0.00 | 91 | 1012.7 |
| 20260905081053 | 63 | 309 | 0.0 | 0.0 | 0.00 | 0.00 | 0.00 | 91 | 1012.7 |
| 20260905080548 | 63 | 309 | 0.0 | 0.0 | 0.00 | 0.00 | 0.00 | 91 | 1012.7 |
| 20260905080036 | 63 | 309 | 0.0 | 0.0 | 0.00 | 0.00 | 0.00 | 91 | 1012.8 |
| 20260905075541 | 63 | 309 | 0.0 | 0.0 | 0.00 | 0.00 | 0.00 | 91 | 1012.9 |
| 20260905075024 | 64 | 309 | 0.0 | 0.0 | 0.00 | 0.00 | 0.00 | 91 | 1012.9 |
| 20260905074555 | 64 | 309 | 0.0 | 0.0 | 0.00 | 0.00 | 0.00 | 91 | 1012.9 |
| 20260905074033 | 64 | 309 | 0.0 | 0.0 | 0.00 | 0.00 | 0.00 | 91 | 1012.9 |
| 20260905073527 | 64 | 309 | 0.0 | 0.0 | 0.00 | 0.00 | 0.00 | 91 | 1012.8 |
| 20260905073038 | 64 | 309 | 0.0 | 0.0 | 0.00 | 0.00 | 0.00 | 91 | 1012.9 |
| 20260905072604 | 64 | 309 | 0.0 | 0.0 | 0.00 | 0.00 | 0.00 | 91 | 1012.9 |
| 20260905072029 | 64 | 309 | 0.0 | 0.0 | 0.00 | 0.00 | 0.00 | 91 | 1012.9 |
| 20260905071558 | 64 | 309 | 0.0 | 0.0 | 0.00 | 0.00 | 0.00 | 91 | 1012.9 |
| 20260905071051 | 64 | 309 | 0.0 | 0.0 | 0.00 | 0.00 | 0.00 | 91 | 1012.9 |
| 20260905070525 | 64 | 309 | 0.0 | 0.0 | 0.00 | 0.00 | 0.00 | 91 | 1012.9 |
| 20260905070031 | 64 | 309 | 0.0 | 0.0 | 0.00 | 0.00 | 0.00 | 91 | 1013.1 |
| 20260905065546 | 64 | 309 | 0.0 | 0.0 | 0.00 | 0.00 | 0.00 | 91 | 1013.1 |
| 20260905065028 | 64 | 309 | 0.0 | 0.0 | 0.00 | 0.00 | 0.00 | 91 | 1013.0 |
| 20260905064558 | 64 | 309 | 0.0 | 0.0 | 0.00 | 0.00 | 0.00 | 91 | 1013.0 |
| 20260905064029 | 65 | 309 | 0.0 | 0.0 | 0.00 | 0.00 | 0.00 | 91 | 1013.0 |
| 20260905063605 | 64 | 309 | 0.0 | 0.0 | 0.00 | 0.00 | 0.00 | 91 | 1013.1 |
| 20260905063031 | 64 | 309 | 0.0 | 0.0 | 0.00 | 0.00 | 0.00 | 91 | 1013.1 |
| 20260905062535 | 64 | 309 | 0.0 | 0.0 | 0.00 | 0.00 | 0.00 | 91 | 1013.2 |
| 20260905062046 | 64 | 309 | 0.0 | 0.0 | 0.00 | 0.00 | 0.00 | 91 | 1013.2 |
| 20260905061549 | 64 | 309 | 0.0 | 0.0 | 0.00 | 0.00 | 0.00 | 91 | 1013.3 |
| 20260905061025 | 64 | 309 | 0.0 | 0.0 | 0.00 | 0.00 | 0.00 | 91 | 1013.3 |
| 20260905060548 | 65 | 309 | 0.0 | 0.0 | 0.00 | 0.00 | 0.00 | 91 | 1013.2 |
| 20260905060032 | 65 | 309 | 0.0 | 0.0 | 0.00 | 0.00 | 0.00 | 91 | 1013.3 |
| 20260905055528 | 65 | 309 | 0.0 | 0.0 | 0.00 | 0.00 | 0.00 | 91 | 1013.3 |
| 20260905055034 | 65 | 309 | 0.0 | 0.0 | 0.00 | 0.00 | 0.00 | 91 | 1013.3 |
| 20260905054529 | 65 | 309 | 0.0 | 0.0 | 0.00 | 0.00 | 0.00 | 91 | 1013.2 |
| 20260905054024 | 65 | 309 | 0.0 | 0.0 | 0.00 | 0.00 | 0.00 | 90 | 1013.2 |
| 20260905053536 | 65 | 309 | 0.0 | 0.0 | 0.00 | 0.00 | 0.00 | 90 | 1013.2 |
| 20260905053032 | 65 | 309 | 0.0 | 0.0 | 0.00 | 0.00 | 0.00 | 90 | 1013.3 |
| 20260905052526 | 65 | 309 | 0.0 | 0.0 | 0.00 | 0.00 | 0.00 | 90 | 1013.2 |
| 20260905052047 | 65 | 309 | 0.0 | 0.0 | 0.00 | 0.00 | 0.00 | 90 | 1013.2 |
| 20260905051559 | 65 | 309 | 0.0 | 0.0 | 0.00 | 0.00 | 0.00 | 90 | 1013.3 |
| 20260905051051 | 65 | 309 | 0.0 | 0.0 | 0.00 | 0.00 | 0.00 | 90 | 1013.3 |
| 20260905050525 | 65 | 309 | 0.0 | 0.0 | 0.00 | 0.00 | 0.00 | 90 | 1013.3 |
| 20260905050035 | 65 | 309 | 0.0 | 0.0 | 0.00 | 0.00 | 0.00 | 90 | 1013.3 |
| 20260905045533 | 65 | 309 | 0.0 | 0.0 | 0.00 | 0.00 | 0.00 | 90 | 1013.4 |
| 20260905045040 | 65 | 309 | 0.0 | 0.0 | 0.00 | 0.00 | 0.00 | 90 | 1013.3 |
| 20260905044531 | 65 | 309 | 0.0 | 0.0 | 0.00 | 0.00 | 0.00 | 90 | 1013.4 |
| 20260905044046 | 65 | 309 | 0.0 | 0.0 | 0.00 | 0.00 | 0.00 | 90 | 1013.3 |
| 20260905043530 | 65 | 309 | 0.0 | 0.0 | 0.00 | 0.00 | 0.00 | 90 | 1013.3 |
| 20260905043053 | 65 | 309 | 0.0 | 0.0 | 0.00 | 0.00 | 0.00 | 89 | 1013.4 |
| 20260905042557 | 65 | 309 | 0.0 | 0.0 | 0.00 | 0.00 | 0.00 | 89 | 1013.3 |
| 20260905042043 | 65 | 309 | 0.0 | 0.0 | 0.00 | 0.00 | 0.00 | 89 | 1013.4 |
| 20260905041534 | 65 | 309 | 0.0 | 0.0 | 0.00 | 0.00 | 0.00 | 89 | 1013.4 |
| 20260905041043 | 65 | 309 | 0.0 | 0.0 | 0.00 | 0.00 | 0.00 | 89 | 1013.4 |
| 20260905040525 | 65 | 309 | 0.0 | 0.0 | 0.00 | 0.00 | 0.00 | 89 | 1013.4 |
| 20260905040025 | 65 | 309 | 0.0 | 0.0 | 0.00 | 0.00 | 0.00 | 89 | 1013.3 |
| 20260905035531 | 65 | 309 | 0.0 | 0.0 | 0.00 | 0.00 | 0.00 | 89 | 1013.3 |
| 20260905035043 | 65 | 309 | 0.0 | 0.0 | 0.00 | 0.00 | 0.00 | 89 | 1013.3 |
| 20260905034530 | 65 | 309 | 0.0 | 0.0 | 0.00 | 0.00 | 0.00 | 89 | 1013.4 |
| 20260905034027 | 65 | 309 | 0.0 | 0.0 | 0.00 | 0.00 | 0.00 | 88 | 1013.5 |
| 20260905033531 | 66 | 309 | 0.0 | 0.0 | 0.00 | 0.00 | 0.00 | 88 | 1013.4 |
| 20260905033027 | 66 | 309 | 0.0 | 0.0 | 0.00 | 0.00 | 0.00 | 88 | 1013.3 |
| 20260905032537 | 66 | 309 | 0.0 | 0.0 | 0.00 | 0.00 | 0.00 | 88 | 1013.3 |
| 20260905032036 | 66 | 309 | 0.0 | 0.0 | 0.00 | 0.00 | 0.00 | 88 | 1013.3 |
| 20260905031539 | 66 | 309 | 0.0 | 0.0 | 0.00 | 0.00 | 0.00 | 88 | 1013.2 |
| 20260905031044 | 66 | 309 | 0.0 | 0.0 | 0.00 | 0.00 | 0.00 | 87 | 1013.2 |
| 20260905030532 | 66 | 309 | 0.0 | 0.0 | 0.00 | 0.00 | 0.00 | 87 | 1013.2 |
| 20260905030027 | 66 | 309 | 0.0 | 0.0 | 0.00 | 0.00 | 0.00 | 87 | 1013.2 |
| 20260905025520 | 67 | 309 | 0.0 | 0.0 | 0.00 | 0.01 | 0.00 | 87 | 1013.3 |
| 20260905025040 | 67 | 309 | 0.0 | 0.0 | 0.00 | 0.01 | 0.00 | 87 | 1013.2 |
| 20260905024528 | 67 | 309 | 0.0 | 0.0 | 0.00 | 0.01 | 0.00 | 86 | 1013.3 |
| 20260905024033 | 67 | 309 | 0.0 | 0.0 | 0.00 | 0.01 | 0.00 | 86 | 1013.3 |
| 20260905023543 | 67 | 309 | 0.0 | 0.0 | 0.00 | 0.01 | 0.00 | 86 | 1013.3 |
| 20260905023038 | 67 | 309 | 0.0 | 0.0 | 0.00 | 0.01 | 0.00 | 86 | 1013.3 |
| 20260905022557 | 67 | 309 | 0.0 | 0.0 | 0.00 | 0.01 | 0.00 | 85 | 1013.3 |
| 20260905022021 | 67 | 309 | 0.0 | 0.0 | 0.00 | 0.01 | 0.00 | 85 | 1013.3 |
| 20260905021554 | 67 | 309 | 0.0 | 0.0 | 0.00 | 0.01 | 0.00 | 85 | 1013.3 |
| 20260905021031 | 67 | 309 | 0.0 | 0.0 | 0.00 | 0.01 | 0.00 | 84 | 1013.3 |
| 20260905020526 | 68 | 309 | 0.0 | 0.0 | 0.00 | 0.01 | 0.00 | 84 | 1013.2 |
| 20260905020034 | 68 | 309 | 0.0 | 0.0 | 0.00 | 0.01 | 0.00 | 84 | 1013.2 |
| 20260905015537 | 68 | 309 | 0.0 | 0.0 | 0.00 | 0.43 | 0.00 | 84 | 1013.3 |
| 20260905015049 | 68 | 309 | 0.0 | 0.0 | 0.00 | 0.43 | 0.00 | 84 | 1013.3 |
| 20260905014527 | 68 | 309 | 0.0 | 0.0 | 0.00 | 0.43 | 0.00 | 84 | 1013.4 |
| 20260905014025 | 68 | 309 | 0.0 | 0.0 | 0.00 | 0.43 | 0.00 | 84 | 1013.4 |
| 20260905013541 | 68 | 309 | 0.0 | 0.0 | 0.00 | 0.43 | 0.00 | 84 | 1013.4 |
| 20260905013046 | 68 | 309 | 0.0 | 0.0 | 0.00 | 0.43 | 0.00 | 83 | 1013.4 |
| 20260905012525 | 69 | 309 | 0.0 | 0.0 | 0.00 | 0.43 | 0.00 | 83 | 1013.3 |
| 20260905012044 | 69 | 309 | 0.0 | 0.0 | 0.00 | 0.43 | 0.00 | 83 | 1013.3 |
| 20260905011526 | 69 | 309 | 0.0 | 0.0 | 0.00 | 0.43 | 0.00 | 83 | 1013.5 |
| 20260905011052 | 69 | 309 | 0.0 | 0.0 | 0.00 | 0.43 | 0.00 | 82 | 1013.4 |
| 20260905010548 | 69 | 309 | 0.0 | 0.0 | 0.00 | 0.43 | 0.00 | 82 | 1013.4 |
| 20260905010100 | 69 | 309 | 0.0 | 0.0 | 0.00 | 0.43 | 0.00 | 81 | 1013.4 |
| 20260905005537 | 69 | 309 | 0.0 | 0.0 | 0.00 | 0.43 | 0.00 | 81 | 1013.4 |
| 20260905005050 | 70 | 309 | 0.0 | 0.0 | 0.00 | 0.43 | 0.00 | 80 | 1013.5 |
| 20260905004530 | 70 | 309 | 0.0 | 0.0 | 0.00 | 0.43 | 0.00 | 80 | 1013.5 |
| 20260905004029 | 70 | 309 | 0.0 | 0.0 | 0.00 | 0.43 | 0.00 | 79 | 1013.4 |
| 20260905003543 | 70 | 309 | 0.0 | 0.0 | 0.00 | 0.43 | 0.00 | 79 | 1013.4 |
| 20260905003059 | 70 | 309 | 0.0 | 0.0 | 0.00 | 0.43 | 0.00 | 79 | 1013.4 |
| 20260905002528 | 71 | 309 | 0.0 | 0.0 | 0.00 | 0.43 | 0.00 | 79 | 1013.4 |
| 20260905002036 | 71 | 309 | 0.0 | 0.0 | 0.00 | 0.43 | 0.00 | 78 | 1013.4 |
| 20260905001536 | 71 | 309 | 0.0 | 0.0 | 0.00 | 0.43 | 0.00 | 78 | 1013.2 |
| 20260905001025 | 71 | 309 | 0.0 | 0.0 | 0.00 | 0.43 | 0.00 | 78 | 1013.1 |
| 20260905000548 | 72 | 309 | 0.0 | 0.0 | 0.00 | 0.43 | 0.00 | 77 | 1013.1 |
| 20260905000032 | 72 | 309 | 0.0 | 0.0 | 0.00 | 0.43 | 0.00 | 77 | 1013.0 |
| 20260904235559 | 72 | 309 | 0.0 | 0.0 | 0.00 | 0.43 | 0.00 | 76 | 1012.9 |
| 20260904235058 | 73 | 309 | 0.0 | 0.0 | 0.00 | 0.43 | 0.00 | 76 | 1012.9 |
| 20260904234544 | 73 | 309 | 0.0 | 0.0 | 0.00 | 0.43 | 0.00 | 75 | 1012.8 |
| 20260904234042 | 73 | 309 | 0.0 | 0.0 | 0.00 | 0.43 | 0.00 | 74 | 1012.8 |
| 20260904233549 | 73 | 309 | 0.0 | 0.0 | 0.00 | 0.43 | 0.00 | 74 | 1012.8 |
| 20260904233055 | 73 | 309 | 0.0 | 0.0 | 0.00 | 0.43 | 0.00 | 72 | 1012.8 |
| 20260904232540 | 73 | 309 | 0.0 | 0.0 | 0.00 | 0.43 | 0.00 | 70 | 1012.7 |
| 20260904232033 | 73 | 309 | 0.0 | 0.0 | 0.00 | 0.43 | 0.00 | 70 | 1012.7 |
| 20260904231525 | 74 | 309 | 0.0 | 0.0 | 0.00 | 0.43 | 0.00 | 70 | 1012.9 |
| 20260904231051 | 74 | 309 | 0.0 | 1.0 | 0.00 | 0.43 | 0.00 | 70 | 1012.8 |
| 20260904230554 | 74 | 309 | 0.0 | 1.0 | 0.00 | 0.43 | 0.00 | 70 | 1012.8 |
| 20260904230050 | 74 | 309 | 0.0 | 3.0 | 0.00 | 0.43 | 0.00 | 69 | 1012.8 |
| 20260904225537 | 74 | 309 | 1.0 | 3.0 | 0.00 | 0.43 | 0.00 | 68 | 1012.7 |
| 20260904225039 | 74 | 309 | 0.0 | 0.0 | 0.00 | 0.43 | 0.00 | 68 | 1012.5 |
| 20260904224530 | 74 | 309 | 0.0 | 1.0 | 0.00 | 0.43 | 0.00 | 68 | 1012.6 |
| 20260904224046 | 74 | 309 | 0.0 | 5.0 | 0.00 | 0.43 | 0.00 | 67 | 1012.5 |
| 20260904223542 | 74 | 302 | 1.0 | 5.0 | 0.00 | 0.43 | 0.00 | 67 | 1012.6 |
| 20260904223056 | 74 | 322 | 2.0 | 6.0 | 0.00 | 0.43 | 0.00 | 66 | 1012.5 |
| 20260904222533 | 74 | 327 | 1.0 | 8.0 | 0.00 | 0.43 | 0.00 | 66 | 1012.5 |
| 20260904222053 | 74 | 325 | 5.0 | 8.0 | 0.00 | 0.43 | 0.00 | 65 | 1012.4 |
| 20260904221554 | 75 | 330 | 2.0 | 8.0 | 0.00 | 0.43 | 0.00 | 66 | 1012.3 |
| 20260904221030 | 75 | 332 | 3.0 | 8.0 | 0.00 | 0.43 | 0.00 | 66 | 1012.4 |
| 20260904220525 | 75 | 321 | 4.0 | 8.0 | 0.00 | 0.43 | 0.00 | 65 | 1012.5 |
| 20260904220038 | 75 | 343 | 3.0 | 7.0 | 0.00 | 0.43 | 0.00 | 66 | 1012.4 |
| 20260904215536 | 75 | 343 | 3.0 | 7.0 | 0.00 | 0.45 | 0.00 | 65 | 1012.4 |
| 20260904215041 | 75 | 321 | 2.0 | 6.0 | 0.00 | 0.45 | 0.00 | 64 | 1012.3 |
| 20260904214539 | 75 | 275 | 2.0 | 11.0 | 0.00 | 0.45 | 0.00 | 64 | 1012.3 |
| 20260904214058 | 75 | 315 | 4.0 | 11.0 | 0.00 | 0.45 | 0.00 | 63 | 1012.3 |
| 20260904213542 | 75 | 339 | 3.0 | 10.0 | 0.00 | 0.45 | 0.00 | 65 | 1012.5 |
| 20260904213047 | 75 | 340 | 2.0 | 5.0 | 0.00 | 0.45 | 0.00 | 68 | 1012.5 |
| 20260904212548 | 75 | 274 | 1.0 | 8.0 | 0.00 | 0.45 | 0.00 | 69 | 1012.6 |
| 20260904212112 | 75 | 296 | 3.0 | 8.0 | 0.00 | 0.45 | 0.00 | 66 | 1012.6 |
| 20260904211548 | 75 | 331 | 5.0 | 8.0 | 0.00 | 0.45 | 0.00 | 66 | 1012.5 |
| 20260904211034 | 75 | 322 | 3.0 | 6.0 | 0.00 | 0.45 | 0.00 | 67 | 1012.6 |
| 20260904210527 | 76 | 334 | 3.0 | 9.0 | 0.00 | 0.45 | 0.00 | 67 | 1012.7 |
| 20260904210030 | 76 | 327 | 5.0 | 10.0 | 0.00 | 0.45 | 0.00 | 66 | 1012.7 |
| 20260904205539 | 76 | 335 | 4.0 | 11.0 | 0.00 | 0.45 | 0.00 | 67 | 1012.8 |
| 20260904205029 | 76 | 336 | 6.0 | 11.0 | 0.00 | 0.45 | 0.00 | 67 | 1012.7 |
| 20260904204533 | 76 | 329 | 3.0 | 8.0 | 0.00 | 0.45 | 0.00 | 69 | 1012.7 |
| 20260904204036 | 77 | 297 | 3.0 | 10.0 | 0.00 | 0.45 | 0.00 | 69 | 1012.7 |
| 20260904203605 | 77 | 338 | 5.0 | 10.0 | 0.00 | 0.45 | 0.00 | 67 | 1012.7 |
| 20260904203029 | 77 | 306 | 5.0 | 7.0 | 0.00 | 0.45 | 0.00 | 69 | 1012.7 |
| 20260904202524 | 77 | 265 | 3.0 | 9.0 | 0.00 | 0.45 | 0.00 | 70 | 1012.7 |
| 20260904202024 | 77 | 341 | 5.0 | 9.0 | 0.00 | 0.45 | 0.00 | 68 | 1012.8 |
| 20260904201550 | 77 | 275 | 4.0 | 11.0 | 0.00 | 0.45 | 0.00 | 68 | 1012.8 |
| 20260904201043 | 77 | 274 | 6.0 | 11.0 | 0.00 | 0.45 | 0.00 | 66 | 1012.8 |
| 20260904200533 | 77 | 265 | 3.0 | 11.0 | 0.00 | 0.45 | 0.00 | 67 | 1012.9 |
| 20260904200023 | 77 | 317 | 3.0 | 11.0 | 0.00 | 0.45 | 0.00 | 67 | 1013.0 |
| 20260904195530 | 77 | 331 | 4.0 | 11.0 | 0.00 | 0.45 | 0.00 | 67 | 1013.1 |
| 20260904195041 | 77 | 329 | 3.0 | 11.0 | 0.00 | 0.45 | 0.00 | 67 | 1013.1 |
| 20260904194558 | 77 | 275 | 2.0 | 7.0 | 0.00 | 0.45 | 0.00 | 67 | 1013.2 |
| 20260904194034 | 77 | 273 | 2.0 | 8.0 | 0.00 | 0.45 | 0.00 | 67 | 1013.2 |